Regional Weather Roundup
Issued by NWS Bismarck, ND

Home | Current Version | Previous Version | Text Only | Print | Product List | Glossary On
Versions: 1 2 3 4 5 6 7 8 9 10 11 12 13 14 15 16 17 18 19 20 21 22 23 24 25 26 27 28 29 30 31 32 33 34 35 36 37 38 39 40 41 42 43 44 45 46 47 48 49 50
000
ASUS43 KBIS 261610
RWRBIS

NWR BROADCAST TEXT
NATIONAL WEATHER SERVICE BISMARCK ND
1100 AM CDT SAT JUL 26 2014

NOTE: "FAIR" INDICATES FEW OR NO CLOUDS BELOW 12,000 FEET WITH NO
SIGNIFICANT WEATHER AND/OR OBSTRUCTIONS TO VISIBILITY.


CITY           SKY/WX    TMP DP  RH WIND       PRES   REMARKS
WILLISTON      CLOUDY    65  50  58 W22G35    29.91S
MINOT          PTSUNNY   66  52  60 W22G32    29.81S
MINOT AFB      PTSUNNY   66  55  67 W22G32    29.79F
BISMARCK       SUNNY     72  49  44 W16G26    29.90S
DICKINSON      SUNNY     67  50  54 W21G29    29.95F
GARRISON         N/A     67  54  63 W22G29    29.86F
HETTINGER ARPT SUNNY     73  46  38 W21G32    30.01R
JAMESTOWN      SUNNY     72  54  53 NW21G29   29.83S
CARRINGTON     FAIR      68  55  64 NW23      29.83S
CROSBY           N/A     59  59 100 W18G29    29.83R
HARVEY         FAIR      66  55  68 W21G28    29.82S
HAZEN          FAIR      68  50  52 W20       29.90F
LINTON         FAIR      72  54  53 NW18      29.90F
MANDAN         FAIR      68  52  56 W21       29.91F
RUGBY          FAIR      64  55  72 W25G31    29.77S
STANLEY        PTSUNNY   63  54  72 W28G45    29.85S
TIOGA          CLOUDY    59  57  94 W28       29.89S
WATFORD CITY   PTSUNNY   64  52  63 W21G30    29.90S
$$

CITY           SKY/WX    TMP DP  RH WIND       PRES   REMARKS
GRAND FORKS    MOSUNNY   73  58  59 W14G21    29.75R
GRAND FORKS AF SUNNY     73  58  58 W14       29.76S
DEVILS LAKE    MOSUNNY   68  54  60 W24G32    29.76F
FARGO          SUNNY     79  65  62 SW15      29.77F
CANDO          FAIR      66  54  63 W20G31    29.76F
CAVALIER       FAIR      66  55  68 W16G23    29.72R
GRAFTON        FAIR      72  57  60 W20       29.73S
GWINNER        SUNNY     75  63  64 W13       29.84S
LANGDON        FAIR      66  54  63 W25G32    29.74S
ROLLA          CLOUDY    61  55  82 W16G23    29.75S
WALHALLA         N/A     68  55  64 W16G25      N/A
$$

CITY           SKY/WX    TMP DP  RH WIND       PRES   REMARKS
ABERDEEN       MOSUNNY   80  65  59 W14G20    29.87R
MOBRIDGE       SUNNY     74  53  48 NW15      29.91R
BUFFALO          N/A     71  45  39 W22G30    30.00R
RAPID CITY     SUNNY     74  47  38 NW18      30.07R
GLASGOW        CLOUDY    63  50  62 W17G29    30.02R
SIDNEY         PTSUNNY   66  48  52 W20G25    29.97S
WOLF POINT     PTSUNNY   67  49  52 W21G28    29.99S
GLENDIVE       SUNNY     66  48  52 W23G32    30.03S
MILES CITY     SUNNY     73  42  32 NW26G33   30.07S
BAKER          SUNNY     69  46  43 W26G36    30.05S
$$

CITY           SKY/WX    TMP DP  RH WIND       PRES   REMARKS
BILLINGS       MOSUNNY   69  40  34 SW6       30.15F
GREAT FALLS    SUNNY     66  39  37 VRB3      30.18R
REGINA         LGT RAIN  59  57  94 NW20G28   29.83R
ESTEVAN        LGT RAIN  61  57  88 W17G25    29.80R
$$




USA.gov is the U.S. government's official web portal to all federal, state and local government web resources and services.